When you browse on this site, cookies collect data to enhance your experience and personalize the content and advertising you see.
Visit our Privacy Policy to learn more. By continuing to use the site, you agree to this use of cookies and data.
  • In Romania
  • List of Countries
  • For 7 days
  • Water Temperature
  • Satellite Maps
  • Weather Map
  • Weather Widgets
  • user-avatar
    Login

    Hourly Weather Seram

    Today, 22 February, Friday

    Time Temperature Precipitation Wind Pressure Humidity
    00:00 +30°C° 0 mm 2 mps 726 mmHg 32%
    01:00 +29°C° 0 mm 2 mps 726 mmHg 34%
    02:00 +29°C° 0 mm 2 mps 725 mmHg 37%
    03:00 +28°C° 0 mm 2 mps 725 mmHg 38%
    04:00 +28°C° 0 mm 2 mps 725 mmHg 39%
    05:00 +27°C° 0 mm 2 mps 725 mmHg 41%
    06:00 +28°C° 0 mm 2 mps 725 mmHg 39%
    07:00 +29°C° 0 mm 2 mps 726 mmHg 37%
    08:00 +30°C° 0 mm 2 mps 726 mmHg 34%
    09:00 +32°C° 0 mm 2 mps 726 mmHg 31%
    10:00 +35°C° 0 mm 2 mps 726 mmHg 28%
    11:00 +37°C° 0 mm 3 mps 726 mmHg 24%
    12:00 +38°C° 0 mm 3 mps 726 mmHg 22%
    13:00 +39°C° 0 mm 3 mps 725 mmHg 20%
    14:00 +39°C° 0 mm 3 mps 724 mmHg 17%
    15:00 +39°C° 0 mm 2 mps 724 mmHg 17%
    16:00 +39°C° 0 mm 2 mps 723 mmHg 16%
    17:00 +39°C° 0 mm 2 mps 723 mmHg 16%
    18:00 +38°C° 0 mm 2 mps 723 mmHg 18%
    19:00 +36°C° 0 mm 3 mps 724 mmHg 20%
    20:00 +35°C° 0 mm 3 mps 724 mmHg 21%
    21:00 +34°C° 0 mm 3 mps 724 mmHg 23%
    22:00 +33°C° 0 mm 3 mps 724 mmHg 24%
    23:00 +31°C° 0 mm 3 mps 724 mmHg 26%

    Tomorrow, 23 February, Saturday

    Time Temperature Precipitation Wind Pressure Humidity
    00:00 +31°C° 0 mm 3 mps 724 mmHg 28%
    01:00 +30°C° 0 mm 3 mps 724 mmHg 30%
    02:00 +29°C° 0 mm 3 mps 723 mmHg 32%
    03:00 +29°C° 0 mm 3 mps 723 mmHg 33%
    04:00 +28°C° 0 mm 2 mps 723 mmHg 35%
    05:00 +27°C° 0 mm 2 mps 723 mmHg 36%
    06:00 +28°C° 0 mm 2 mps 723 mmHg 33%
    07:00 +29°C° 0 mm 2 mps 724 mmHg 30%
    08:00 +31°C° 0 mm 2 mps 725 mmHg 27%
    09:00 +32°C° 0 mm 2 mps 725 mmHg 25%
    10:00 +35°C° 0 mm 2 mps 725 mmHg 23%
    11:00 +37°C° 0 mm 2 mps 725 mmHg 21%
    12:00 +37°C° 0 mm 1 mps 724 mmHg 20%
    13:00 +37°C° 0 mm 1 mps 723 mmHg 19%
    14:00 +39°C° 0 mm 1 mps 722 mmHg 17%
    15:00 +39°C° 0 mm 1 mps 722 mmHg 17%
    16:00 +39°C° 0 mm 1 mps 721 mmHg 17%
    17:00 +36°C° 0 mm 0 mps 721 mmHg 16%
    18:00 +37°C° 0 mm 1 mps 722 mmHg 17%
    19:00 +36°C° 0 mm 1 mps 722 mmHg 19%
    20:00 +36°C° 0 mm 2 mps 722 mmHg 20%
    21:00 +35°C° 0 mm 2 mps 722 mmHg 21%
    22:00 +34°C° 0 mm 3 mps 723 mmHg 22%
    23:00 +33°C° 0 mm 3 mps 723 mmHg 23%

    Day after tomorrow, 24 February, Sunday

    Time Temperature Precipitation Wind Pressure Humidity
    00:00 +33°C° 0 mm 4 mps 722 mmHg 26%
    01:00 +32°C° 0 mm 4 mps 722 mmHg 29%
    02:00 +30°C° 0 mm 5 mps 721 mmHg 32%
    03:00 +30°C° 0 mm 4 mps 721 mmHg 33%
    04:00 +29°C° 0 mm 4 mps 721 mmHg 34%
    05:00 +29°C° 0 mm 4 mps 721 mmHg 34%
    06:00 +29°C° 0 mm 4 mps 722 mmHg 32%
    07:00 +30°C° 0 mm 3 mps 723 mmHg 30%
    08:00 +31°C° 0 mm 3 mps 723 mmHg 28%
    09:00 +33°C° 0 mm 3 mps 724 mmHg 25%
    10:00 +35°C° 0 mm 4 mps 724 mmHg 21%
    11:00 +37°C° 0 mm 4 mps 724 mmHg 18%
    12:00 +38°C° 0 mm 4 mps 723 mmHg 17%
    13:00 +38°C° 0 mm 4 mps 722 mmHg 16%
    14:00 +39°C° 0 mm 3 mps 721 mmHg 15%
    15:00 +39°C° 0 mm 3 mps 721 mmHg 15%
    16:00 +39°C° 0 mm 2 mps 720 mmHg 15%
    17:00 +39°C° 0 mm 2 mps 720 mmHg 15%
    18:00 +38°C° 0 mm 2 mps 720 mmHg 16%
    19:00 +36°C° 0 mm 3 mps 721 mmHg 18%
    20:00 +35°C° 0 mm 3 mps 722 mmHg 19%
    21:00 +35°C° 0 mm 3 mps 722 mmHg 20%
    22:00 +34°C° 0 mm 3 mps 722 mmHg 20%
    23:00 +34°C° 0 mm 3 mps 722 mmHg 21%

    25 February, Monday

    Time Temperature Precipitation Wind Pressure Humidity
    00:00 +33°C° 0 mm 4 mps 722 mmHg 24%
    01:00 +32°C° 0 mm 5 mps 721 mmHg 27%
    02:00 +30°C° 0 mm 5 mps 721 mmHg 30%
    03:00 +29°C° 0 mm 5 mps 721 mmHg 31%
    04:00 +29°C° 0 mm 4 mps 721 mmHg 32%
    05:00 +28°C° 0 mm 4 mps 721 mmHg 33%
    06:00 +29°C° 0 mm 4 mps 721 mmHg 30%
    07:00 +32°C° 0 mm 5 mps 722 mmHg 26%
    08:00 +33°C° 0 mm 6 mps 723 mmHg 23%
    09:00 +35°C° 0 mm 6 mps 723 mmHg 20%
    10:00 +38°C° 0 mm 6 mps 723 mmHg 17%
    11:00 +40°C° 0 mm 6 mps 723 mmHg 14%
    12:00 +41°C° 0 mm 6 mps 722 mmHg 13%
    13:00 +41°C° 0 mm 5 mps 721 mmHg 12%
    14:00 +42°C° 0 mm 4 mps 720 mmHg 11%
    15:00 +41°C° 0 mm 4 mps 720 mmHg 11%
    16:00 +41°C° 0 mm 4 mps 719 mmHg 11%
    17:00 +41°C° 0 mm 4 mps 719 mmHg 11%
    18:00 +38°C° 0 mm 3 mps 720 mmHg 12%
    19:00 +37°C° 0 mm 3 mps 720 mmHg 13%
    20:00 +35°C° 0 mm 2 mps 721 mmHg 14%
    21:00 +35°C° 0 mm 2 mps 721 mmHg 15%
    22:00 +34°C° 0 mm 2 mps 721 mmHg 16%
    23:00 +32°C° 0 mm 2 mps 721 mmHg 17%

    26 February, Tuesday

    Time Temperature Precipitation Wind Pressure Humidity
    00:00 +32°C° 0 mm 2 mps 721 mmHg 18%
    01:00 +31°C° 0 mm 2 mps 720 mmHg 19%
    02:00 +30°C° 0 mm 2 mps 720 mmHg 20%
    03:00 +29°C° 0 mm 2 mps 720 mmHg 20%
    04:00 +29°C° 0 mm 2 mps 720 mmHg 19%
    05:00 +28°C° 0 mm 3 mps 720 mmHg 18%
    06:00 +29°C° 0 mm 3 mps 721 mmHg 18%
    07:00 +30°C° 0 mm 3 mps 722 mmHg 18%
    08:00 +31°C° 0 mm 3 mps 722 mmHg 17%
    09:00 +33°C° 0 mm 3 mps 722 mmHg 15%
    10:00 +35°C° 0 mm 3 mps 722 mmHg 13%
    11:00 +36°C° 0 mm 3 mps 722 mmHg 11%
    12:00 +37°C° 0 mm 4 mps 721 mmHg 10%
    13:00 +38°C° 0 mm 4 mps 720 mmHg 9%
    14:00 +40°C° 0 mm 5 mps 719 mmHg 8%
    15:00 +39°C° 0 mm 5 mps 719 mmHg 8%
    16:00 +39°C° 0 mm 5 mps 719 mmHg 9%
    17:00 +39°C° 0 mm 5 mps 719 mmHg 9%
    18:00 +36°C° 0 mm 4 mps 719 mmHg 9%
    19:00 +35°C° 0 mm 2 mps 719 mmHg 10%
    20:00 +33°C° 0 mm 1 mps 720 mmHg 10%
    21:00 +32°C° 0 mm 2 mps 720 mmHg 11%
    22:00 +31°C° 0 mm 3 mps 720 mmHg 13%
    23:00 +32°C° 0 mm 5 mps 720 mmHg 14%

    27 February, Wednesday

    Time Temperature Precipitation Wind Pressure Humidity
    00:00 +30°C° 0 mm 4 mps 720 mmHg 16%
    01:00 +29°C° 0 mm 4 mps 720 mmHg 19%
    02:00 +28°C° 0 mm 3 mps 719 mmHg 21%
    03:00 +27°C° 0 mm 3 mps 719 mmHg 23%
    04:00 +26°C° 0 mm 3 mps 720 mmHg 25%
    05:00 +25°C° 0 mm 2 mps 720 mmHg 26%
    06:00 +26°C° 0 mm 3 mps 721 mmHg 25%
    07:00 +27°C° 0 mm 3 mps 722 mmHg 24%
    08:00 +27°C° 0 mm 4 mps 723 mmHg 23%
    09:00 +29°C° 0 mm 4 mps 723 mmHg 20%
    10:00 +30°C° 0 mm 4 mps 723 mmHg 18%
    11:00 +33°C° 0 mm 4 mps 723 mmHg 15%
    12:00 +34°C° 0 mm 4 mps 722 mmHg 14%
    13:00 +35°C° 0 mm 4 mps 721 mmHg 12%
    14:00 +36°C° 0 mm 5 mps 721 mmHg 11%
    15:00 +36°C° 0 mm 4 mps 721 mmHg 11%
    16:00 +36°C° 0 mm 4 mps 720 mmHg 11%
    17:00 +36°C° 0 mm 4 mps 720 mmHg 11%
    18:00 +34°C° 0 mm 4 mps 721 mmHg 12%
    19:00 +33°C° 0 mm 3 mps 721 mmHg 14%
    20:00 +31°C° 0 mm 2 mps 721 mmHg 15%
    21:00 +30°C° 0 mm 2 mps 721 mmHg 17%
    22:00 +29°C° 0 mm 2 mps 722 mmHg 18%
    23:00 +28°C° 0 mm 3 mps 722 mmHg 20%
    Show more